Location: Unspecified
(0.0000°N, 0.0000°E)
Time: 23:00:53
(UTC+00:00)

ISS - Pass Details

Date: 18 April 2018
Orbit: 403 x 406 km, 51.6° (Epoch: 25 April)

Event Time Altitude Azimuth Distance (km) Brightness Sun altitude
Rises 19:32:58 0° 310° (NW) 2,311 1.0 -23.0°
Reaches altitude 10° 19:35:10 10° 299° (WNW) 1,455 0.0 -23.5°
Enters shadow 19:37:54 31° 243° (WSW) 735 -2.1 -24.2°
